Theta_e
314 317 318 319 318 313 313 312 309 309 308 308 308 309 311 311 312 310 310 311 311 312 314 314 317 317 317 317 317 319 316 315 316 316 316 315 314 315 315 315 314 314 313 314 316
316 317 318 317 315 312 313 310 309 309 308 308 308 310 312 311 312 311 310 311 311 311 314 314 315 315 316 317 316 315 314 317 314 314 313 314 314 315 314 313 313 313 313 313 315
312 313 313 312 311 312 310 308 309 308 308 311 313 311 313 312 313 311 310 311 311 311 312 313 315 315 315 315 314 314 314 314 314 314 314 313 313 313 313 311 313 313 313 314 314
309 308 309 310 311 312 310 309 308 309 313 312 314 311 313 313 314 311 310 311 312 312 313 314 315 315 313 314 314 314 313 314 314 314 312 311 312 312 312 313 313 313 313 313 313
311 310 308 309 311 310 308 308 310 313 312 312 314 314 314 314 313 311 310 311 312 312 313 314 314 314 314 313 313 313 313 313 313 313 313 312 312 311 312 313 313 313 313 313 313
314 310 311 310 309 309 309 309 309 312 313 312 311 312 316 314 313 312 312 311 312 312 312 314 313 314 314 313 313 313 313 313 314 314 314 313 312 313 314 314 313 313 313 313 313
317 317 310 311 311 310 309 310 310 310 311 311 310 311 315 314 314 313 312 312 312 312 312 312 313 315 314 313 313 312 311 309 311 314 313 312 311 311 314 314 313 313 313 313 312
319 318 318 316 310 310 310 309 310 313 313 313 313 313 315 315 313 313 312 312 312 312 312 311 312 313 314 312 311 311 310 312 312 312 313 312 313 311 314 313 313 313 313 313 312
319 319 318 318 318 315 311 309 309 313 312 312 312 314 314 313 313 314 313 312 312 312 312 311 312 313 313 312 312 310 312 312 312 311 312 311 311 310 313 313 313 313 313 313 312
315 319 318 318 318 319 318 317 311 310 310 312 310 313 314 314 314 313 313 312 312 313 315 314 314 311 309 309 311 312 311 311 311 312 310 310 310 310 312 313 313 314 314 313 312
322 316 319 318 318 316 317 316 315 316 314 315 316 315 315 314 314 314 313 312 313 314 314 314 311 313 314 310 310 311 311 311 309 311 310 309 309 310 310 311 312 313 313 313 313
323 322 318 318 317 316 315 316 314 315 313 315 314 314 314 314 314 315 315 313 313 314 313 312 313 312 310 310 311 311 311 310 310 310 311 309 310 312 309 309 310 310 311 312 313
322 323 321 318 317 316 313 313 312 312 312 316 314 314 315 314 314 315 314 313 312 313 314 314 314 309 310 311 311 310 311 311 312 310 309 309 309 309 311 311 311 312 312 312 313
318 320 322 318 317 314 312 311 311 312 313 316 314 315 314 314 314 314 313 312 312 313 313 313 311 310 310 311 309 312 310 311 311 310 313 310 314 310 311 310 310 310 312 312 312
312 316 319 320 318 316 313 312 313 317 315 317 316 316 315 314 314 315 313 312 312 314 312 314 310 310 311 312 310 312 309 309 310 310 311 311 311 310 310 311 310 308 310 312 312
308 310 315 319 318 318 318 317 317 319 316 319 317 317 316 315 315 314 313 312 312 311 311 311 310 310 311 310 309 308 311 311 309 309 313 313 311 312 312 311 310 310 311 311 312
307 308 310 314 319 319 318 320 319 321 317 319 319 317 317 316 316 314 314 314 313 317 316 315 313 310 309 311 309 311 312 315 316 316 318 311 310 312 311 309 309 309 310 311 311
307 308 308 313 318 318 318 317 325 318 319 317 316 316 317 316 316 315 314 314 312 314 313 314 316 311 308 310 312 311 311 315 321 319 317 310 314 314 307 306 308 310 310 310 311
308 308 310 315 318 316 319 317 316 319 317 316 316 318 317 316 314 314 313 313 313 311 315 314 316 308 307 308 310 311 312 310 314 312 313 312 311 310 308 307 307 307 308 309 309
312 310 312 318 316 315 315 317 317 316 314 315 318 316 318 316 316 313 314 313 315 310 312 314 315 310 306 307 306 309 308 312 311 321 322 315 314 314 310 309 306 303 302 301 303
314 313 316 317 317 316 313 314 317 314 314 314 314 316 315 317 314 314 315 314 312 310 311 311 312 312 308 309 312 306 308 309 312 319 320 319 316 312 310 308 305 299 296 295 297
315 313 314 317 316 312 315 316 315 312 312 312 312 312 314 314 315 313 314 314 312 310 311 309 309 311 312 310 308 308 309 309 316 317 315 317 318 309 303 303 304 298 294 295 296
316 316 317 319 312 310 313 315 315 313 312 311 312 311 311 314 316 313 314 313 311 309 310 309 310 312 314 312 312 310 309 309 314 314 318 320 318 307 303 301 299 297 296 294 295
316 314 317 318 315 313 316 316 316 317 314 312 312 312 312 313 311 314 313 313 312 309 310 310 309 313 318 316 316 317 316 315 316 317 318 317 316 309 307 303 298 296 294 293 292
315 316 317 315 315 315 315 316 317 317 314 314 313 311 312 313 313 313 312 313 311 310 308 309 310 308 309 309 311 312 312 313 316 316 318 317 317 317 303 299 297 295 293 292 290
315 316 315 314 315 314 313 314 315 315 315 315 312 314 312 315 316 318 315 314 315 309 308 310 314 311 316 314 314 314 314 314 313 314 316 316 317 298 295 294 292 291 291 289 288
311 308 309 314 316 314 315 314 315 315 315 316 315 315 315 315 315 314 314 314 314 314 308 310 311 312 316 314 315 317 315 315 314 306 308 313 303 295 292 291 290 289 288 287 286
Wind_Speed
8 7 6 4 3 3 3 3 3 3 3 2 3 5 7 4 3 8 4 6 5 2 3 5 7 4 3 3 3 1 4 0 1 2 2 5 3 3 3 4 6 5 5 5 10
8 7 5 4 3 3 3 2 2 2 1 1 3 5 5 3 1 8 8 9 5 3 3 4 4 2 2 2 2 4 3 3 2 1 3 4 5 7 4 5 7 10 9 8 13
8 6 5 4 3 3 2 3 3 2 2 3 5 3 4 2 1 6 7 8 6 3 4 4 3 2 2 1 2 3 4 2 2 3 2 2 3 4 6 5 14 15 15 14 15
8 7 5 4 4 3 3 3 4 3 5 7 8 3 2 2 1 5 5 5 4 1 4 5 2 1 2 1 1 1 3 3 3 3 2 2 3 4 12 14 7 8 7 18 18
9 7 5 4 3 3 3 4 3 3 4 6 6 5 1 1 3 5 5 3 3 3 2 3 2 1 2 2 1 1 2 3 4 5 6 6 9 8 18 17 14 16 14 18 20
10 7 5 4 2 2 3 2 1 1 2 5 5 4 3 0 5 4 3 2 3 2 3 2 2 2 2 1 2 1 3 6 6 6 6 3 4 2 5 3 20 17 16 17 19
12 9 6 3 1 0 1 0 1 3 4 6 5 4 2 1 5 6 3 2 2 4 3 3 2 1 2 1 0 1 4 5 5 3 3 5 4 8 8 6 15 20 19 19 19
14 11 8 5 3 2 3 3 3 2 4 4 3 3 2 3 4 6 4 2 1 1 3 1 1 1 1 0 2 2 4 4 1 4 1 2 9 5 7 16 19 21 21 21 21
16 14 11 8 4 4 5 6 6 7 7 6 5 3 2 3 3 5 6 3 3 2 2 1 0 1 1 3 4 6 2 3 6 8 2 3 9 6 8 14 22 23 24 23 21
20 16 15 9 4 4 7 7 8 8 8 5 7 3 3 2 5 5 6 2 1 3 1 1 2 3 3 4 2 3 3 4 5 2 4 5 18 19 20 19 27 25 25 25 25
23 19 16 9 5 8 5 3 3 1 5 3 3 3 4 4 5 2 4 2 1 1 2 3 4 4 5 4 3 2 3 5 5 3 3 6 13 23 10 22 22 26 26 29 29
22 22 18 11 7 9 5 2 2 1 4 7 6 6 5 4 2 3 3 1 0 1 2 4 4 3 3 2 2 3 3 6 6 3 2 6 14 23 7 6 15 26 28 30 30
20 20 20 14 7 9 9 6 5 5 2 2 3 3 3 3 2 2 1 1 2 1 4 5 2 5 3 2 3 4 5 4 6 5 5 4 7 6 3 4 4 9 17 22 27
18 18 18 14 6 10 7 6 6 5 4 2 1 2 2 2 3 4 2 2 2 4 2 5 2 4 3 4 6 4 4 2 3 4 3 4 5 8 3 6 4 6 9 17 22
17 16 16 13 6 6 6 6 6 2 4 2 2 2 2 3 3 2 3 2 3 3 4 5 6 5 5 5 7 6 2 2 2 3 3 2 1 8 3 5 7 7 10 12 18
17 16 14 11 7 8 8 7 1 5 5 1 2 1 2 3 2 2 2 2 1 1 2 6 1 4 6 2 2 1 2 4 4 3 1 4 5 5 4 6 3 1 10 12 13
18 16 14 12 8 8 9 2 5 3 0 2 3 2 1 3 2 3 1 2 4 1 3 2 4 1 2 2 2 2 4 4 4 2 6 1 3 9 5 7 5 4 2 12 10
18 17 14 10 7 6 7 4 3 4 5 0 1 1 4 3 3 2 2 4 5 2 2 4 6 7 5 5 5 5 6 4 5 4 7 3 7 5 3 6 10 7 6 9 7
20 17 12 7 3 4 2 2 7 6 2 2 0 2 3 2 3 2 6 5 6 9 7 5 6 2 2 2 4 3 4 3 1 0 2 4 6 3 3 6 13 13 9 9 6
22 20 8 0 5 5 3 6 5 3 3 2 6 6 5 3 2 3 4 4 3 6 3 3 5 4 3 1 2 4 3 3 1 4 5 5 5 5 4 6 6 11 15 18 15
19 11 2 3 10 3 4 7 5 5 6 6 6 4 6 4 6 5 6 4 4 4 3 4 4 2 3 7 9 1 3 4 2 4 4 3 5 6 5 6 6 11 15 15 19
9 4 6 11 3 1 2 5 2 4 5 4 3 5 6 5 5 6 8 7 6 8 5 4 4 5 11 3 2 3 7 7 4 5 4 2 7 3 6 5 9 13 13 14 14
14 8 8 6 3 3 5 4 3 4 5 5 5 7 4 5 4 5 4 2 5 5 5 4 3 4 9 2 2 4 5 5 4 3 8 6 5 5 7 7 9 12 10 11 10
7 3 5 8 6 3 2 5 4 2 5 5 4 3 3 4 4 5 4 3 5 7 7 5 4 7 14 9 2 4 4 4 7 5 8 13 13 8 8 5 9 11 11 12 11
5 6 6 4 4 3 3 2 4 3 5 6 3 7 8 6 4 9 7 2 4 5 4 4 6 4 8 10 10 18 18 16 17 21 14 24 18 10 6 7 9 11 10 11 11
6 5 6 7 10 5 5 5 7 5 5 6 7 7 8 12 14 14 4 4 10 3 6 3 4 6 17 16 17 21 21 20 21 24 23 23 21 9 13 13 13 11 11 10 8
9 10 6 6 5 7 8 6 8 5 11 24 12 7 7 13 16 15 17 14 11 7 7 7 5 4 16 6 9 15 18 23 20 2 6 12 0 9 8 10 9 8 7 7 6
Wind_Direction
107 126 137 144 151 159 165 169 174 177 199 251 319 357 21 131 68 26 29 15 15 107 107 116 119 92 66 56 64 53 62 118 236 186 193 185 171 198 190 169 196 212 212 256 192
87 102 118 131 146 155 153 152 156 156 171 324 330 344 10 159 240 18 23 21 45 84 124 117 127 52 88 58 42 78 101 222 201 180 184 206 197 186 190 199 211 216 228 210 186
73 85 97 114 127 130 128 128 125 117 84 28 2 353 25 167 242 358 13 23 34 77 121 126 113 61 78 66 22 124 169 194 213 202 205 219 242 223 202 231 227 210 217 203 200
58 62 75 94 108 110 110 114 114 104 92 39 25 34 48 31 190 354 12 22 33 75 139 144 124 84 99 87 85 90 213 201 203 226 232 235 270 268 232 242 228 211 229 217 210
48 50 58 75 88 99 112 116 97 107 89 43 29 25 339 335 345 355 9 11 6 34 159 161 123 119 139 157 49 95 250 232 231 235 257 268 261 251 263 257 244 244 233 215 212
43 44 45 55 71 105 129 111 51 136 264 327 338 342 355 46 359 358 348 353 357 38 59 169 153 102 111 134 129 271 281 273 259 247 263 251 268 338 267 263 227 229 222 213 214
33 34 34 33 16 4 253 248 355 334 302 311 316 311 278 200 5 1 336 326 23 38 59 85 109 187 156 91 288 304 326 321 238 224 261 330 272 226 257 228 203 215 219 214 219
26 21 11 357 321 288 266 258 297 6 330 311 308 319 272 288 325 356 335 292 328 10 27 37 65 108 78 119 35 21 64 2 281 162 292 69 273 261 271 218 211 211 213 219 221
24 18 4 341 303 293 281 266 266 261 302 272 283 307 261 289 305 332 347 287 321 314 302 318 48 87 73 73 17 13 284 293 319 201 116 195 278 239 280 221 222 219 220 220 223
24 20 12 14 12 308 296 285 266 267 273 267 248 287 237 267 305 306 338 308 307 322 19 61 57 63 40 71 238 254 292 274 260 258 215 252 266 279 251 235 227 224 221 223 223
21 18 16 13 357 352 328 294 285 244 225 240 253 264 275 298 303 244 339 337 254 339 68 21 48 231 230 194 165 165 221 257 247 256 250 231 273 281 265 235 233 232 232 229 229
17 16 12 10 13 10 12 30 24 287 309 247 242 252 264 290 290 247 312 248 122 272 127 18 237 209 131 154 177 194 262 257 285 185 5 291 283 285 267 228 230 234 238 233 225
9 11 11 5 13 17 37 50 27 352 279 273 238 259 261 269 266 235 274 230 192 245 200 182 239 146 181 204 224 227 208 231 233 331 265 303 279 304 283 267 241 236 238 237 225
359 1 7 7 14 6 24 10 2 353 58 256 234 231 224 235 268 223 224 219 218 222 233 230 174 180 202 242 160 278 189 217 278 22 253 24 283 301 303 277 280 239 222 224 220
347 351 357 10 10 4 349 343 336 6 6 188 220 220 232 239 306 209 196 197 219 203 123 256 177 196 217 221 163 231 156 254 205 197 6 259 133 271 292 270 249 239 212 221 218
345 341 344 348 348 349 341 331 351 44 265 224 175 229 300 202 232 191 226 230 227 283 228 248 239 191 210 184 192 74 335 53 55 89 333 233 164 275 220 224 200 186 220 205 200
344 338 334 328 323 334 340 1 33 142 24 211 228 190 230 258 261 178 215 226 194 230 283 298 230 197 173 167 47 101 60 320 333 350 234 160 183 242 309 309 195 174 87 178 184
339 335 328 316 307 326 339 51 205 233 221 109 194 250 218 185 238 204 293 281 222 153 150 200 310 182 175 205 188 187 160 170 271 248 272 322 246 256 334 39 86 80 91 147 160
335 332 322 308 309 323 316 93 214 210 180 187 346 216 256 217 218 189 213 231 228 179 187 181 264 136 182 156 143 174 184 183 211 207 321 232 288 287 97 54 48 38 53 60 87
339 333 317 185 350 330 89 229 228 213 155 142 191 182 232 214 204 172 226 216 225 200 171 225 289 203 152 133 43 165 160 73 4 271 250 266 272 234 171 91 45 39 53 102 108
338 329 292 287 322 242 194 228 257 219 196 174 207 237 219 211 200 210 235 266 176 184 157 174 170 261 123 201 189 120 226 221 194 169 233 287 256 319 118 100 91 81 80 90 101
342 329 291 290 301 255 214 208 255 212 213 236 213 225 214 204 240 227 224 218 178 157 190 214 180 237 223 227 222 185 208 178 191 228 228 234 259 86 83 75 107 109 104 103 103
324 282 279 245 224 240 271 277 246 203 221 196 225 209 180 216 236 226 258 262 176 172 193 193 230 317 317 10 353 212 200 184 117 77 227 245 257 162 130 110 105 105 101 99 101
304 315 279 227 253 206 228 250 240 272 249 210 230 207 179 230 241 259 235 246 210 216 210 168 216 205 249 250 126 203 216 225 213 218 260 232 261 205 197 160 99 91 89 83 72
255 247 246 283 279 246 201 266 261 269 232 209 252 207 200 229 224 241 247 271 228 213 195 194 252 223 263 280 280 275 264 256 238 242 240 266 254 294 131 107 100 104 92 81 72
251 294 320 271 262 245 198 221 222 248 213 227 219 223 235 245 240 266 269 225 264 193 181 169 253 206 259 258 255 262 261 253 249 250 244 253 263 117 106 102 85 82 87 78 65
280 302 331 268 242 237 234 228 239 220 258 241 237 241 226 237 245 251 256 245 238 224 201 185 199 204 266 228 264 261 257 248 247 263 251 246 298 136 113 104 99 96 87 74 51